When you browse on this site, cookies collect data to enhance your experience and personalize the content and advertising you see.
Visit our Privacy Policy to learn more. By continuing to use the site, you agree to this use of cookies and data.
  • In Slovakia
  • List of Countries
  • For 7 days
  • Water Temperature
  • Weather Map
  • Weather Widgets
  • user-avatar
    Login

    Hourly Weather Yeghegnadzor

    Today, 5 June, Friday

    Time Temperature Precipitation Wind Pressure Humidity
    00:00 +16°C° 0 mm 1 mps 652 mmHg 50%
    01:00 +16°C° 0 mm 1 mps 652 mmHg 52%
    02:00 +15°C° 0 mm 1 mps 652 mmHg 53%
    03:00 +15°C° 0 mm 1 mps 652 mmHg 56%
    04:00 +16°C° 0 mm 1 mps 653 mmHg 56%
    05:00 +18°C° 0 mm 1 mps 654 mmHg 55%
    06:00 +19°C° 0 mm 1 mps 654 mmHg 55%
    07:00 +21°C° 0 mm 1 mps 654 mmHg 48%
    08:00 +22°C° 0 mm 1 mps 655 mmHg 42%
    09:00 +24°C° 0 mm 2 mps 655 mmHg 35%
    10:00 +25°C° 0 mm 2 mps 655 mmHg 34%
    11:00 +25°C° 0 mm 3 mps 655 mmHg 32%
    12:00 +26°C° 0 mm 4 mps 655 mmHg 30%
    13:00 +26°C° 0 mm 4 mps 655 mmHg 32%
    14:00 +26°C° 0 mm 4 mps 655 mmHg 33%
    15:00 +25°C° 0 mm 4 mps 654 mmHg 34%
    16:00 +25°C° 0 mm 3 mps 654 mmHg 36%
    17:00 +24°C° 0 mm 2 mps 655 mmHg 38%
    18:00 +24°C° 0 mm 1 mps 655 mmHg 40%
    19:00 +22°C° 0 mm 1 mps 655 mmHg 42%
    20:00 +20°C° 0 mm 1 mps 655 mmHg 45%
    21:00 +18°C° 0 mm 2 mps 655 mmHg 47%
    22:00 +17°C° 0 mm 2 mps 655 mmHg 48%
    23:00 +17°C° 0 mm 2 mps 655 mmHg 48%

    Tomorrow, 6 June, Saturday

    Time Temperature Precipitation Wind Pressure Humidity
    00:00 +16°C° 0 mm 2 mps 655 mmHg 49%
    01:00 +16°C° 0 mm 2 mps 655 mmHg 51%
    02:00 +15°C° 0 mm 1 mps 655 mmHg 53%
    03:00 +15°C° 0 mm 1 mps 655 mmHg 55%
    04:00 +16°C° 0 mm 1 mps 655 mmHg 56%
    05:00 +18°C° 0 mm 1 mps 656 mmHg 56%
    06:00 +18°C° 0 mm 1 mps 657 mmHg 57%
    07:00 +20°C° 0 mm 1 mps 657 mmHg 51%
    08:00 +21°C° 0 mm 1 mps 657 mmHg 46%
    09:00 +23°C° 0 mm 1 mps 658 mmHg 40%
    10:00 +24°C° 0.1 mm 2 mps 658 mmHg 38%
    11:00 +24°C° 0.1 mm 2 mps 658 mmHg 36%
    12:00 +25°C° 0.1 mm 3 mps 657 mmHg 34%
    13:00 +25°C° 0.3 mm 3 mps 657 mmHg 34%
    14:00 +25°C° 0.3 mm 3 mps 657 mmHg 35%
    15:00 +25°C° 0.3 mm 3 mps 657 mmHg 35%
    16:00 +25°C° 0.2 mm 3 mps 657 mmHg 40%
    17:00 +24°C° 0.2 mm 3 mps 656 mmHg 44%
    18:00 +23°C° 0.2 mm 2 mps 656 mmHg 49%
    19:00 +20°C° 0.1 mm 2 mps 656 mmHg 54%
    20:00 +18°C° 0.1 mm 2 mps 656 mmHg 58%
    21:00 +16°C° 0.1 mm 2 mps 656 mmHg 63%
    22:00 +15°C° 0 mm 2 mps 656 mmHg 64%
    23:00 +15°C° 0 mm 2 mps 656 mmHg 65%

    Day after tomorrow, 7 June, Sunday

    Time Temperature Precipitation Wind Pressure Humidity
    00:00 +14°C° 0 mm 2 mps 656 mmHg 67%
    01:00 +14°C° 0 mm 2 mps 655 mmHg 67%
    02:00 +14°C° 0 mm 2 mps 655 mmHg 67%
    03:00 +13°C° 0 mm 2 mps 655 mmHg 67%
    04:00 +14°C° 0 mm 2 mps 655 mmHg 65%
    05:00 +15°C° 0 mm 2 mps 656 mmHg 62%
    06:00 +16°C° 0 mm 1 mps 656 mmHg 59%
    07:00 +19°C° 0 mm 1 mps 657 mmHg 53%
    08:00 +21°C° 0 mm 1 mps 657 mmHg 47%
    09:00 +23°C° 0 mm 1 mps 657 mmHg 41%
    10:00 +24°C° 0 mm 1 mps 657 mmHg 39%
    11:00 +25°C° 0 mm 1 mps 657 mmHg 37%
    12:00 +26°C° 0 mm 1 mps 657 mmHg 36%
    13:00 +26°C° 0 mm 2 mps 657 mmHg 36%
    14:00 +26°C° 0 mm 2 mps 657 mmHg 36%
    15:00 +27°C° 0 mm 2 mps 656 mmHg 36%
    16:00 +26°C° 0 mm 2 mps 656 mmHg 39%
    17:00 +26°C° 0 mm 2 mps 656 mmHg 43%
    18:00 +25°C° 0 mm 2 mps 656 mmHg 46%
    19:00 +23°C° 0 mm 2 mps 655 mmHg 53%
    20:00 +20°C° 0 mm 2 mps 655 mmHg 60%
    21:00 +18°C° 0 mm 2 mps 655 mmHg 68%
    22:00 +17°C° 0 mm 2 mps 654 mmHg 69%
    23:00 +17°C° 0 mm 2 mps 654 mmHg 71%

    8 June, Monday

    Time Temperature Precipitation Wind Pressure Humidity
    00:00 +16°C° 0 mm 2 mps 654 mmHg 72%
    01:00 +16°C° 0 mm 2 mps 654 mmHg 73%
    02:00 +16°C° 0 mm 2 mps 654 mmHg 73%
    03:00 +15°C° 0 mm 1 mps 653 mmHg 74%
    04:00 +16°C° 0 mm 1 mps 654 mmHg 69%
    05:00 +18°C° 0 mm 1 mps 654 mmHg 65%
    06:00 +19°C° 0 mm 1 mps 654 mmHg 60%
    07:00 +21°C° 0 mm 1 mps 655 mmHg 54%
    08:00 +23°C° 0 mm 1 mps 655 mmHg 47%
    09:00 +24°C° 0 mm 1 mps 655 mmHg 40%
    10:00 +25°C° 0 mm 1 mps 655 mmHg 36%
    11:00 +27°C° 0 mm 1 mps 655 mmHg 32%
    12:00 +28°C° 0 mm 1 mps 655 mmHg 28%
    13:00 +28°C° 0 mm 1 mps 655 mmHg 27%
    14:00 +29°C° 0 mm 1 mps 655 mmHg 26%
    15:00 +29°C° 0 mm 1 mps 654 mmHg 25%
    16:00 +28°C° 0 mm 1 mps 654 mmHg 30%
    17:00 +28°C° 0 mm 1 mps 654 mmHg 35%
    18:00 +27°C° 0 mm 1 mps 654 mmHg 41%
    19:00 +25°C° 0 mm 2 mps 654 mmHg 46%
    20:00 +21°C° 0 mm 2 mps 653 mmHg 52%
    21:00 +19°C° 0 mm 2 mps 653 mmHg 57%
    22:00 +18°C° 0 mm 2 mps 653 mmHg 57%
    23:00 +18°C° 0 mm 2 mps 653 mmHg 57%

    9 June, Tuesday

    Time Temperature Precipitation Wind Pressure Humidity
    00:00 +17°C° 0 mm 2 mps 652 mmHg 57%
    01:00 +17°C° 0 mm 2 mps 652 mmHg 54%
    02:00 +16°C° 0 mm 2 mps 652 mmHg 52%
    03:00 +16°C° 0 mm 2 mps 652 mmHg 50%
    04:00 +17°C° 0 mm 2 mps 653 mmHg 49%
    05:00 +19°C° 0 mm 1 mps 653 mmHg 48%
    06:00 +20°C° 0 mm 1 mps 654 mmHg 48%
    07:00 +22°C° 0 mm 1 mps 654 mmHg 42%
    08:00 +24°C° 0 mm 1 mps 655 mmHg 35%
    09:00 +26°C° 0 mm 1 mps 655 mmHg 29%
    10:00 +27°C° 0 mm 1 mps 655 mmHg 28%
    11:00 +28°C° 0 mm 1 mps 656 mmHg 27%
    12:00 +29°C° 0 mm 1 mps 656 mmHg 26%
    13:00 +30°C° 0 mm 1 mps 655 mmHg 27%
    14:00 +30°C° 0 mm 2 mps 655 mmHg 28%
    15:00 +30°C° 0 mm 2 mps 655 mmHg 30%
    16:00 +29°C° 0.1 mm 2 mps 655 mmHg 35%
    17:00 +28°C° 0.1 mm 2 mps 654 mmHg 41%
    18:00 +27°C° 0.1 mm 2 mps 654 mmHg 47%
    19:00 +25°C° 0.7 mm 2 mps 654 mmHg 55%
    20:00 +21°C° 0.7 mm 2 mps 654 mmHg 63%
    21:00 +20°C° 0.7 mm 1 mps 654 mmHg 71%
    22:00 +20°C° 0.5 mm 1 mps 654 mmHg 71%
    23:00 +19°C° 0.5 mm 1 mps 654 mmHg 71%

    10 June, Wednesday

    Time Temperature Precipitation Wind Pressure Humidity
    00:00 +19°C° 0.5 mm 1 mps 654 mmHg 72%
    01:00 +19°C° 0 mm 1 mps 654 mmHg 72%
    02:00 +18°C° 0 mm 1 mps 654 mmHg 72%
    03:00 +16°C° 0 mm 0 mps 653 mmHg 72%
    04:00 +19°C° 0 mm 1 mps 654 mmHg 69%
    05:00 +19°C° 0 mm 1 mps 654 mmHg 67%
    06:00 +20°C° 0 mm 1 mps 655 mmHg 64%
    07:00 +22°C° 0.1 mm 1 mps 655 mmHg 59%
    08:00 +23°C° 0.1 mm 1 mps 655 mmHg 54%
    09:00 +25°C° 0.1 mm 1 mps 656 mmHg 49%
    10:00 +26°C° 0.4 mm 2 mps 656 mmHg 46%
    11:00 +27°C° 0.4 mm 2 mps 656 mmHg 44%
    12:00 +28°C° 0.4 mm 2 mps 656 mmHg 41%
    13:00 +28°C° 0.4 mm 2 mps 656 mmHg 39%
    14:00 +28°C° 0.4 mm 2 mps 656 mmHg 37%
    15:00 +29°C° 0.4 mm 2 mps 655 mmHg 35%
    16:00 +28°C° 0.1 mm 2 mps 655 mmHg 38%
    17:00 +28°C° 0.1 mm 2 mps 655 mmHg 40%
    18:00 +28°C° 0.1 mm 2 mps 655 mmHg 43%
    19:00 +25°C° 0.1 mm 2 mps 655 mmHg 50%
    20:00 +23°C° 0.1 mm 2 mps 655 mmHg 57%
    21:00 +19°C° 0.1 mm 2 mps 655 mmHg 63%
    22:00 +19°C° 0.2 mm 2 mps 654 mmHg 64%
    23:00 +18°C° 0.2 mm 2 mps 654 mmHg 66%
    Show more